COSMOS 886 DEB *, 9954

Orbit data source: Space-Track

COSMOS 886 DEB *, 9954 is space debris in LEO originally from a launch on Mon, 27 Dec 1976 UTC launched from the Tyuratam Missile And Space Complex (TTMTR). Debris objects in space refer to the collection of defunct objects orbiting the Earth. Examples of debris include non-operational satellites, rocket bodies, and fragments generated from explosions, collisions, or faulty payload assembly.

Loading next visibility...
Identifier
9954, 1976-126AU
Orbit
LEO
Country
Flag of CISCIS
Related business
Manufacturer
Unknown
Mission
Spacecraft
Bus & Motor
Unknown
Mass
Unknown
Launch date (UTC)
1976-12-27 (49 years ago)
Launch vehicle
Unknown
Launch site
Tyuratam Missile And Space Complex (TTMTR)
Object type
Payload
Rocket body
Debris
Shape & HBR
Unknown shape, 0.1 m
Radar Cross Section
Small (<0.1 m²)

Expand to show TLE details & history
Last TLE update: 12 hours ago

TLE from 12 hours ago
0 COSMOS 886 DEB *
1  9954U 76126AU  26129.96107904 -.00000042  00000-0  17971-4 0  9991
2  9954  65.7008 216.7928 0888828  57.0193 311.3116 13.04114255622100
Epoch: 2026-05-09T23:03Z
TLE epoch observation values (Epoch: 2026-05-09T23:03:57.229Z)
Latitude
0.00005°
Longitude
3.03336°
Altitude
837.608 km
Speed
7.632 km/s
True Right ascension
14h 27m 10s
True Declination
0° 00' 00"
Sunlit
Object was in full shadow at epoch
Visualization orbit readout
Latitude
Unknown
Longitude
Unknown
Altitude
Unknown
Speed
Unknown
Apparent Right ascension
Unknown
Apparent Declination
Unknown
Sunlit
N/A
Visualization observer readout
Local Sidereal Time
19:45:36
Azimuth
Unknown
Elevation
Unknown
Doppler factor
Unknown
Orbital elements
Apogee altitude
1,922.108 km
Perigee altitude
567.051 km
Semi-major axis
7,622.717 km
Eccentricity
0.08888
Inclination
65.7008°
RAAN
216.7928°
Arg. of periapsis
57.0193°
True anomaly
303.08633°
Mean anomaly
311.3116°
Eccentric anomaly
307.25832°
Mean motion
3.26121 °/min
Orbital period
110.39 mins
BSTAR
0.000017971
Loading maneuver chart data...
Computing Atmospheric mass density...
Loading historical data...
Loading historical data...
Loading historical data...
Loading historical data...
Loading historical data...
Loading historical data...
Loading historical data...

Documentation

Showing up to 5 results
|